Flag for Canada Weather past 2 weeks in Guelph, Ontario, Canada

Now
64 °F

Scattered clouds.


Feels Like: 64 °F
Forecast: N/A
Wind: 12 mph from West

Location: Waterloo Well

Current Time: Sep 17, 2014 at 5:54:25 PM

Latest Report: Sep 17, 2014 at 5:00 PM


Visibility: 9 mi

Pressure: 29.97 "Hg

Humidity: 46%

Dew point: 43 °F

Location of GuelphLocation

Historic Weather in Guelph — Graph

°F

Guelph temperature yesterday

Maximum temperature yesterday: 63 °F (at 1:00 PM)
Minimum temperature yesterday: 45 °F (at 7:00 AM)
Average temperature yesterday: 53 °F

Past Weeks' High & Low Weather Summary

 TemperatureHumidityPressure
High84 °F (Sep 5, 3:00 PM)100% (Sep 3, 12:03 AM)30.37 "Hg (Sep 3, 12:03 AM)
Low37 °F (Sep 14, 4:57 AM)43% (Sep 7, 5:00 PM)29.54 "Hg (Sep 11, 3:00 AM)
Average59 °F83%30.07 "Hg
* Reported Sep 2 4:00 PM — Sep 17 4:00 PM, Guelph, Weather by CustomWeather, © 2014

Note: Actual official high and low records may vary slightly from our data, if they occured in-between our weather recording intervals... More about our weather records

Advertising

Guelph weather history for previous 24 hours

 ConditionsComfort  
Time TempWeatherWind HumidityBarometerVisibility
4:00 PM
Sep 17
64 °FPassing clouds.10 mph49%29.97 "Hg9 mi
3:00 PM66 °FPassing clouds.12 mph43%29.97 "Hg9 mi
2:00 PM66 °FSunny.8 mph46%29.98 "Hg9 mi
1:00 PM64 °FSunny.7 mph49%29.99 "Hg9 mi
12:00 PM63 °FSunny.8 mph56%30.01 "Hg9 mi
11:00 AM61 °FSunny.12 mph59%30.02 "Hg9 mi
10:00 AM59 °FSunny.9 mph68%30.03 "Hg9 mi
9:00 AM52 °FSunny.2 mph94%30.04 "Hg9 mi
8:00 AM43 °FPassing clouds.2 mph100%30.06 "Hg9 mi
7:54 AM41 °FFog.No wind100%30.05 "Hg6 mi
7:00 AM39 °FFog.No wind100%30.05 "Hg0 mi
6:00 AM39 °FClear.No wind100%30.05 "Hg9 mi
5:48 AM41 °FClear.No wind100%30.05 "Hg9 mi
5:00 AM41 °FClear.No wind93%30.05 "Hg9 mi
4:00 AM41 °FClear.No wind93%30.05 "Hg9 mi
3:02 AM41 °FFog.No wind100%30.06 "Hg2 mi
2:57 AM41 °FFog.No wind93%30.06 "Hg2 mi
2:00 AM43 °FClear.2 mph100%30.05 "Hg9 mi
1:47 AM45 °FClear.2 mph93%30.05 "Hg9 mi
1:00 AM45 °FPassing clouds.3 mph93%30.06 "Hg9 mi
12:00 AM45 °FPassing clouds.2 mph100%30.06 "Hg9 mi
11:00 PM
Sep 16
46 °FClear.No wind93%30.06 "Hg9 mi
10:00 PM48 °FOvercast.No wind87%30.07 "Hg9 mi
9:00 PM48 °FClear.2 mph87%30.08 "Hg9 mi
8:00 PM50 °FSunny.6 mph76%30.08 "Hg9 mi
7:00 PM57 °FSunny.9 mph59%30.07 "Hg9 mi
6:00 PM59 °FPassing clouds.12 mph55%30.06 "Hg9 mi
5:00 PM61 °FPassing clouds.13 mph52%30.06 "Hg9 mi
Weather by CustomWeather, © 2014

See weather overviewHow to use our weather pages